Change the Weather History Date:

Wednesday, October 31, 2012

  Actual Average Record
Temperature  
Mean Temperature 46 °F -  
Max Temperature 62 °F 43 °F - ()
Min Temperature 30 °F 24 °F - ()
Degree Days  
Heating Degree Days 19    
Moisture  
Dew Point 33 °F    
Average Humidity 63    
Maximum Humidity 100    
Minimum Humidity 20    
Precipitation  
Precipitation 0.00 in 0.03 in - ()
Sea Level Pressure  
Sea Level Pressure 30.20 in    
Wind  
Wind Speed 1 mph ()    
Max Wind Speed 8 mph    
Max Gust Speed -    
Visibility 6.2 miles    
Events      
T = Trace of Precipitation, MM = Missing Value Source: Averaged Metar Reports

Daily Weather History Graph

Daily Weather History Graph

Search for Another Location

Airport or City:

Trip Planner

Search our weather history database for the weather conditions in past years. The results will help you decide how hot, cold, wet, or windy it might be!

Date:

Astronomy

Oct. 31, 2012 Rise Set
Actual Time 5:36 AM EET 4:05 PM EET
Civil Twilight 5:08 AM EET 4:33 PM EET
Nautical Twilight 4:36 AM EET 5:05 PM EET
Astronomical Twilight 4:04 AM EET 5:37 PM EET
Moon 5:00 PM EET 6:58 AM EET
Length of Visible Light 11h 25m
Length of Day
10h 28m
Full, 98% of the Moon is Illuminated
Oct 31
Full
Nov 7
Last Quarter
Nov 14
New
Nov 20
First Quarter
Nov 28
Full

Hourly Weather History & Observations

Time (EET) Temp. Windchill Dew Point Humidity Pressure Visibility Wind Dir Wind Speed Gust Speed Precip Events Conditions
12:50 AM 35.6 °F - 33.8 °F 93% 30.15 in - Calm Calm - N/A   Clear
1:50 AM 35.6 °F - 33.8 °F 93% 30.15 in - Calm Calm - N/A   Clear
2:00 AM 35 °F - 34 °F 92%  in 6 mi Calm Calm - -  
2:50 AM 35.6 °F - 32.0 °F 87% 30.15 in - Calm Calm - N/A   Clear
3:50 AM 32.0 °F - 32.0 °F 100% 30.18 in - Variable 1.2 mph - N/A   Clear
4:50 AM 33.8 °F - 30.2 °F 87% 30.18 in - Calm Calm - N/A   Clear
5:50 AM 32.0 °F - 30.2 °F 93% 30.18 in 6.2 mi Calm Calm - N/A   Partly Cloudy
6:50 AM 35.6 °F 31.7 °F 32.0 °F 87% 30.21 in 6.2 mi WNW 4.6 mph - N/A   Partly Cloudy
7:50 AM 42.8 °F - 33.8 °F 70% 30.21 in 6.2 mi Calm Calm - N/A   Partly Cloudy
8:00 AM 42 °F - 33 °F 62%  in 6 mi Calm Calm - -   Scattered Clouds
8:50 AM 50.0 °F - 35.6 °F 58% 30.21 in 6.2 mi Calm Calm - N/A   Partly Cloudy
9:50 AM 57.2 °F - 32.0 °F 38% 30.21 in 6.2 mi Calm Calm - N/A   Partly Cloudy
10:50 AM 59.0 °F - 32.0 °F 36% 30.21 in 6.2 mi Calm Calm - N/A   Partly Cloudy
11:50 AM 59.0 °F - 32.0 °F 36% 30.18 in 6.2 mi Variable 1.2 mph - N/A   Scattered Clouds
12:50 PM 60.8 °F - 32.0 °F 34% 30.18 in 6.2 mi North 3.5 mph - N/A   Scattered Clouds
1:50 PM 62.6 °F - 32.0 °F 32% 30.18 in 6.2 mi Variable 2.3 mph - N/A   Scattered Clouds
2:00 PM 62 °F - 31 °F 20%  in 6 mi South 2.3 mph - -   Partly Cloudy
2:50 PM 60.8 °F - 30.2 °F 31% 30.18 in 6.2 mi Calm Calm - N/A   Scattered Clouds
3:50 PM 57.2 °F - 35.6 °F 44% 30.21 in 6.2 mi ENE 5.8 mph - N/A   Mostly Cloudy
4:50 PM 53.6 °F - 37.4 °F 54% 30.21 in 6.2 mi SE 8.1 mph - N/A   Mostly Cloudy
5:50 PM 50.0 °F - 35.6 °F 58% 30.24 in 6.2 mi WSW 2.3 mph - N/A   Mostly Cloudy
6:50 PM 50.0 °F - 35.6 °F 58% 30.24 in 6.2 mi WSW 4.6 mph - N/A   Mostly Cloudy
7:50 PM 48.2 °F - 35.6 °F 62% 30.24 in 6.2 mi North 2.3 mph - N/A   Mostly Cloudy
8:00 PM 48 °F - 35 °F 49%  in 6 mi North 2.3 mph - -   Mostly Cloudy
8:50 PM 46.4 °F - 35.6 °F 66% 30.24 in 6.2 mi Calm Calm - N/A   Mostly Cloudy
9:50 PM 44.6 °F - 35.6 °F 71% 30.24 in 6.2 mi Calm Calm - N/A   Mostly Cloudy
10:50 PM 42.8 °F - 33.8 °F 70% 30.24 in 6.2 mi Calm Calm - N/A   Mostly Cloudy
11:50 PM 41.0 °F - 33.8 °F 76% 30.24 in 6.2 mi Variable 1.2 mph - N/A   Mostly Cloudy